Regional Weather Roundup
Issued by NWS Midland/Odessa, TX

Skip options and go directly to product.
Home | Oldest Version | Previous Version | Current Version | All | Text Only | Save Text | Print | Product List | Glossary On

Skip product version selection by date and time.   
104
ASUS44 KMAF 011310
RWRMAF
MIDLAND AREA WEATHER ROUNDUP
NATIONAL WEATHER SERVICE MIDLAND TX
800 AM CDT SAT NOV 01 2014

...IN SOUTHWEST TEXAS AND SOUTHEAST NEW MEXICO...

CITY           SKY/WX    TMP DP  RH WIND       PRES   REMARKS
ALPINE         CLEAR     49  37  63 SW8       30.32R
ANDREWS        FAIR      40  33  74 SE5       30.30R WCI  37
ARTESIA        NOT AVBL
BIG SPRING     PTCLDY    46  34  62 SE8       30.32S
CARLSBAD       CLEAR     45  33  63 S6        30.24R
DRYDEN           N/A     53  38  56 E13       30.29R
FORT STOCKTON  CLEAR     52  34  50 S15G28    30.24S
GUAD PASS      PTCLDY    51  36  56 E7        30.27S
HOBBS          CLEAR     39  32  75 E6        30.28F WCI  35
MARFA          CLEAR     43  36  75 SE3       30.29R
MIDLAND AIRPK  MOCLDY    46  35  65 SE9       30.30R
MIDLAND INTL   MOCLDY    46  34  62 SE13      30.29R
ODESSA         MOCLDY    47  33  58 SE14      30.29R
PECOS          CLEAR     48  32  54 E13G18    30.22S
PRESIDIO       FAIR      58  41  51 NE10G16   30.22R
SEMINOLE       PTCLDY    38  32  80 E5        30.30S WCI  34
SNYDER         CLEAR     41  33  74 E5        30.33S WCI  38
WINK           PTCLDY    49  31  49 SE9       30.24S
$$
...OTHER STATIONS IN TEXAS...

CITY           SKY/WX    TMP DP  RH WIND       PRES   REMARKS
ABILENE        CLEAR     40  32  73 SE10      30.35S WCI  33
AMARILLO       CLEAR     37  27  67 S17       30.27S WCI  27
AUSTIN         PTCLDY    43  39  86 N3        30.38R
BROWNSVILLE    CLEAR     59  56  89 NW7       30.26R
CORPUS CHRISTI PTCLDY    55  48  77 NE14      30.31R
DALLAS FTW     PTCLDY    40  31  70 E5        30.42R WCI  37
DEL RIO        CLEAR     51  42  71 SE7       30.34R
EL PASO        MOCLDY    58  38  47 N5        30.14S
HOUSTON INT    CLEAR     47  40  76 NE8       30.39R
LUBBOCK        MOCLDY    38  31  76 SE9       30.29F WCI  31
SAN ANGELO     CLEAR     37  30  75 E3        30.34R
SAN ANTONIO    PTCLDY    49  38  65 NE6       30.36R
WACO           CLEAR     36  31  82 NE7       30.41R WCI  30
WICHITA FALLS  NOT AVBL
$$
...OTHER LOCATIONS IN NEW MEXICO...

CITY           SKY/WX    TMP DP  RH WIND       PRES   REMARKS
ALAMAGORDO     NOT AVBL
ALBUQUERQUE    MOCLDY    52  39  62 E3        30.18R
CANNON AFB     PTCLDY    38  30  74 S6        30.26F WCI  33
CLOVIS         PTCLDY    37  28  70 S9        30.28F WCI  31
HOLLOMAN AFB   CLEAR     47  35  63 VRB2      30.16S
ROSWELL        PTCLDY    42  34  73 SE3       30.24S
RUIDOSO        CLEAR     37  32  81 S6        30.28R WCI  33
SANTA FE       PTCLDY    41  30  65 CALM      30.21S
TRUTH OR CONSE PTCLDY    51  39  63 CALM      30.15S
TUCUMCARI      PTCLDY    46  31  55 SW14      30.22R WCI  40
$$

USA.gov is the U.S. government's official web portal to all federal, state and local government web resources and services.